Location: Lombard
(41.8800°N, 88.0080°W)
Time: 23:18:23
(UTC-05:00)

Transit 2A - Pass Details

Date: 13 February 2023
Orbit: 591 x 964 km, 66.7° (Epoch: 20 March)

Event Time Altitude Azimuth Distance (km) Brightness Sun altitude
Rises 00:03:10 0° 325° (NW) 3,560 - -61.5°
Reaches altitude 10° 00:05:42 10° 321° (NW) 2,648 - -61.6°
Maximum altitude 00:11:45 53° 246° (WSW) 1,166 - -61.5°
Drops below altitude 10° 00:17:54 10° 172° (S) 2,687 - -61.4°
Sets 00:20:29 0° 167° (SSE) 3,615 - -61.4°
